{"data":{"norad_id":57908,"epoch":"2026-09-20T10:10:43.726944Z","epoch_age_seconds":141689,"freshness":"FRESH","line1":"1 57908U 23146T   26263.42411721 -.00000085  00000+0  64641-5 0  9995","line2":"2 57908  43.0061 298.2453 0001933 277.3972  82.6660 15.27576823165737","mean_motion":15.27576823,"eccentricity":0.0001933,"inclination_deg":43.0061,"raan_deg":298.2453,"arg_perigee_deg":277.3972,"mean_anomaly_deg":82.666,"bstar":6.4641e-6,"rev_number":16573,"period_min":94.266944766286,"perigee_km":481.73234002581,"apogee_km":484.38487824831,"semimajor_km":6861.1956091371,"source":"CELESTRAK","updated_at":"2026-09-21T09:00:33.723787Z"}}